Hayward, WI

1:52 AM CDT on October 17, 2017 (GMT -0500)
Sawyer County

Weather History for KHYR - July, 2013

Change the Weather History Date:

Monday, July 22, 2013

  Actual Average Record
Temperature  
Mean Temperature 73 °F -  
Max Temperature 86 °F 84 °F 90 °F (2012)
Min Temperature 62 °F 56 °F 43 °F (2000)
Cooling Degree Days 8    
Growing Degree Days 23 (Base 50)    
Moisture  
Dew Point 62 °F    
Average Humidity 74    
Maximum Humidity 94    
Minimum Humidity 41    
Precipitation  
Precipitation 0.00 in - - ()
Sea Level Pressure  
Sea Level Pressure 29.73 in    
Wind  
Wind Speed 7 mph (South)    
Max Wind Speed 12 mph    
Max Gust Speed 22 mph    
Visibility 10 miles    
Events      
Averages and records for this station are not official NWS values.
T = Trace of Precipitation, MM = Missing Value Source: NWS Daily Summary

Daily Weather History Graph

Daily Weather History Graph

Search for Another Location

Airport or City:

Trip Planner

Search our weather history database for the weather conditions in past years. The results will help you decide how hot, cold, wet, or windy it might be!

Date:

Astronomy

Jul. 22, 2013 Rise Set
Actual Time 5:37 AM CDT 8:46 PM CDT
Civil Twilight 5:01 AM CDT 9:22 PM CDT
Nautical Twilight 4:14 AM CDT 10:09 PM CDT
Astronomical Twilight 3:16 AM CDT 11:05 PM CDT
Moon 8:27 PM CDT (7/22) 5:37 AM CDT (7/22)
Length of Visible Light 16h 21m
Length of Day
15h 09m
Full, 100% of the Moon is Illuminated
Jul 22
Full
Jul 22
Full
Jul 29
Last Quarter
Aug 6
New
Aug 14
First Quarter

Hourly Weather History & Observations

Time (CDT) Temp. Heat Index Dew Point Humidity Pressure Visibility Wind Dir Wind Speed Gust Speed Precip Events Conditions
12:53 AM 63.0 °F - 60.1 °F 90% 29.84 in 10.0 mi South 10.4 mph - N/A   Clear
1:53 AM 62.1 °F - 59.0 °F 90% 29.85 in 10.0 mi South 4.6 mph - N/A   Partly Cloudy
2:53 AM 62.1 °F - 60.1 °F 93% 29.81 in 10.0 mi South 5.8 mph - N/A   Mostly Cloudy
3:18 AM 62.6 °F - 60.8 °F 94% 29.80 in 10.0 mi South 5.8 mph - N/A   Overcast
3:53 AM 62.1 °F - 60.1 °F 93% 29.78 in 10.0 mi South 6.9 mph - N/A   Mostly Cloudy
4:12 AM 62.6 °F - 60.8 °F 94% 29.77 in 10.0 mi South 8.1 mph - N/A   Scattered Clouds
4:53 AM 62.1 °F - 60.1 °F 93% 29.78 in 10.0 mi South 5.8 mph - N/A   Partly Cloudy
5:23 AM 62.6 °F - 60.8 °F 94% 29.78 in 10.0 mi South 6.9 mph - N/A   Mostly Cloudy
5:53 AM 63.0 °F - 60.1 °F 90% 29.78 in 10.0 mi SSW 8.1 mph - N/A   Overcast
6:53 AM 66.0 °F - 62.1 °F 87% 29.75 in 10.0 mi South 6.9 mph - N/A   Overcast
7:08 AM 66.2 °F - 62.6 °F 88% 29.74 in 10.0 mi South 9.2 mph - N/A   Overcast
7:53 AM 68.0 °F - 63.0 °F 84% 29.73 in 10.0 mi South 6.9 mph - N/A   Overcast
8:37 AM 69.8 °F - 64.4 °F 83% 29.73 in 10.0 mi South 8.1 mph - N/A   Scattered Clouds
8:53 AM 71.1 °F - 64.0 °F 78% 29.71 in 10.0 mi South 9.2 mph - N/A   Partly Cloudy
9:53 AM 73.9 °F - 64.0 °F 71% 29.71 in 10.0 mi South 9.2 mph - N/A   Scattered Clouds
10:53 AM 75.9 °F - 64.9 °F 69% 29.68 in 10.0 mi SSW 8.1 mph - N/A   Scattered Clouds
11:03 AM 75.2 °F - 66.2 °F 73% 29.69 in 10.0 mi SSW 10.4 mph 16.1 mph N/A   Mostly Cloudy
11:23 AM 78.8 °F - 66.2 °F 65% 29.68 in 10.0 mi South 5.8 mph - N/A   Mostly Cloudy
11:53 AM 78.1 °F - 66.0 °F 66% 29.67 in 10.0 mi South 11.5 mph 17.3 mph N/A   Mostly Cloudy
12:53 PM 77.0 °F - 66.9 °F 71% 29.67 in 10.0 mi Variable 6.9 mph - N/A   Overcast
1:07 PM 78.8 °F - 68.0 °F 69% 29.68 in 10.0 mi SSW 6.9 mph - N/A   Overcast
1:16 PM 78.8 °F - 68.0 °F 69% 29.68 in 10.0 mi Variable 6.9 mph - N/A   Overcast
1:24 PM 78.8 °F - 68.0 °F 69% 29.67 in 10.0 mi SW 8.1 mph - N/A   Mostly Cloudy
1:53 PM 81.0 °F 83.8 °F 68.0 °F 65% 29.65 in 10.0 mi WSW 9.2 mph 16.1 mph N/A   Mostly Cloudy
2:53 PM 82.9 °F 85.8 °F 68.0 °F 60% 29.65 in 10.0 mi SW 9.2 mph 18.4 mph N/A   Partly Cloudy
3:53 PM 81.0 °F 82.5 °F 64.0 °F 56% 29.65 in 10.0 mi Variable 6.9 mph 20.7 mph N/A   Mostly Cloudy
4:53 PM 84.0 °F 83.8 °F 59.0 °F 43% 29.65 in 10.0 mi Variable 6.9 mph 21.9 mph N/A   Clear
5:53 PM 82.0 °F 81.6 °F 55.9 °F 41% 29.67 in 10.0 mi Variable 5.8 mph 18.4 mph N/A   Clear
6:53 PM 75.9 °F - 57.9 °F 54% 29.71 in 10.0 mi Variable 6.9 mph 18.4 mph N/A   Clear
7:53 PM 71.1 °F - 55.0 °F 57% 29.76 in 10.0 mi Variable 4.6 mph - N/A   Partly Cloudy
8:53 PM 64.9 °F - 55.0 °F 70% 29.78 in 10.0 mi Calm Calm - N/A   Partly Cloudy
9:53 PM 64.0 °F - 54.0 °F 70% 29.79 in 10.0 mi Calm Calm - N/A   Scattered Clouds
10:53 PM 64.0 °F - 53.1 °F 67% 29.79 in 10.0 mi Variable 4.6 mph - N/A   Clear
11:53 PM 63.0 °F - 50.0 °F 63% 29.81 in 10.0 mi Calm Calm - N/A   Clear